owner,sensor,date,latitude,longitude,vertical_datum,wind_speed,wind_to_direction,wind_speed_of_gust,qcFlag 
TABS,ioos:station:wmo:42044:1,2013-12-01T00:00:00Z,26.1914,-97.0507,0.0,2.465218043,100.9912614,3.04,'11111222,11111222,11111222' 
TABS,ioos:station:wmo:42044:1,2013-12-01T00:30:00Z,26.1914,-97.0507,0.0,3.031171391,94.92102545,3.92,'11111222,11111222,11111222' 
TABS,ioos:station:wmo:42044:1,2013-12-01T01:00:00Z,26.1914,-97.0507,0.0,2.821435805,98.56129047,3.53,'11111222,11111222,11111222' 
TABS,ioos:station:wmo:42044:1,2013-12-01T01:30:00Z,26.1914,-97.0507,0.0,1.945173514,103.6794314,2.54,'11111222,11111222,11111222' 
TABS,ioos:station:wmo:42044:1,2013-12-01T02:00:00Z,26.1914,-97.0507,0.0,2.267355288,108.5152368,2.87,'11111222,11111222,11111222' 
TABS,ioos:station:wmo:42044:1,2013-12-01T02:30:00Z,26.1914,-97.0507,0.0,2.900017241,109.1225915,3.75,'11111222,11111222,11111222' 
TABS,ioos:station:wmo:42044:1,2013-12-01T03:00:00Z,26.1914,-97.0507,0.0,3.120160252,114.0187884,4.07,'11111222,11111222,11111222' 
TABS,ioos:station:wmo:42044:1,2013-12-01T03:30:00Z,26.1914,-97.0507,0.0,3.864000518,120.4809308,4.76,'11111222,11111222,11111222' 
TABS,ioos:station:wmo:42044:1,2013-12-01T04:00:00Z,26.1914,-97.0507,0.0,3.268409399,119.3103594,3.91,'11111222,11111222,11111222' 
TABS,ioos:station:wmo:42044:1,2013-12-01T04:30:00Z,26.1914,-97.0507,0.0,2.90396281,109.9329109,3.67,'11111222,11111222,11111222' 
TABS,ioos:station:wmo:42044:1,2013-12-01T05:00:00Z,26.1914,-97.0507,0.0,2.008706051,115.0344877,2.55,'11111222,11111222,11111222' 
TABS,ioos:station:wmo:42044:1,2013-12-01T05:30:00Z,26.1914,-97.0507,0.0,2.076463339,155.5334768,2.67,'11111222,11111222,11111222' 
TABS,ioos:station:wmo:42044:1,2013-12-01T06:00:00Z,26.1914,-97.0507,0.0,1.761391495,177.7226068,2.18,'11111222,11111222,11111222' 
TABS,ioos:station:wmo:42044:1,2013-12-01T06:30:00Z,26.1914,-97.0507,0.0,1.655928742,175.1503779,2.33,'11111222,11111222,11111222' 
TABS,ioos:station:wmo:42044:1,2013-12-01T07:00:00Z,26.1914,-97.0507,0.0,1.301153335,172.4928813,1.69,'11111222,11111222,11111222' 
TABS,ioos:station:wmo:42044:1,2013-12-01T07:30:00Z,26.1914,-97.0507,0.0,1.788770527,120.5795763,2.24,'11111222,11111222,11111222' 
TABS,ioos:station:wmo:42044:1,2013-12-01T08:00:00Z,26.1914,-97.0507,0.0,1.801138529,173.6249044,2.35,'11111222,11111222,11111222' 
TABS,ioos:station:wmo:42044:1,2013-12-01T08:30:00Z,26.1914,-97.0507,0.0,1.753852901,172.7941703,2.36,'11111222,11111222,11111222' 
TABS,ioos:station:wmo:42044:1,2013-12-01T09:00:00Z,26.1914,-97.0507,0.0,2.116246677,169.38058,2.5,'11111222,11111222,11111222' 
TABS,ioos:station:wmo:42044:1,2013-12-01T09:30:00Z,26.1914,-97.0507,0.0,1.14280357,122.856066,1.76,'11111222,11111222,11111222' 
TABS,ioos:station:wmo:42044:1,2013-12-01T10:00:00Z,26.1914,-97.0507,0.0,0.842199501,137.4062806,1.49,'11111222,11111222,11111222' 
TABS,ioos:station:wmo:42044:1,2013-12-01T10:30:00Z,26.1914,-97.0507,0.0,1.2,180.0002105,1.76,'11111222,11111222,11111222' 
TABS,ioos:station:wmo:42044:1,2013-12-01T11:00:00Z,26.1914,-97.0507,0.0,1.664001202,126.9390973,2.49,'11111222,11111222,11111222' 
TABS,ioos:station:wmo:42044:1,2013-12-01T11:30:00Z,26.1914,-97.0507,0.0,1.844478246,119.2058141,2.41,'11111222,11111222,11111222' 
TABS,ioos:station:wmo:42044:1,2013-12-01T12:00:00Z,26.1914,-97.0507,0.0,1.313659012,140.2505761,1.89,'11111222,11111222,11111222' 
TABS,ioos:station:wmo:42044:1,2013-12-01T12:30:00Z,26.1914,-97.0507,0.0,1.177200068,118.9604099,1.78,'11111222,11111222,11111222' 
TABS,ioos:station:wmo:42044:1,2013-12-01T13:00:00Z,26.1914,-97.0507,0.0,0.586003413,115.2535253,1.17,'11111222,11111222,11111222' 
TABS,ioos:station:wmo:42044:1,2013-12-01T13:30:00Z,26.1914,-97.0507,0.0,1.004191217,135.8072433,1.44,'11111222,11111222,11111222' 
TABS,ioos:station:wmo:42044:1,2013-12-01T14:00:00Z,26.1914,-97.0507,0.0,1.323820229,137.7557339,1.71,'11111222,11111222,11111222' 
TABS,ioos:station:wmo:42044:1,2013-12-01T14:30:00Z,26.1914,-97.0507,0.0,1.128981842,147.2955534,1.68,'11111222,11111222,11111222' 
TABS,ioos:station:wmo:42044:1,2013-12-01T15:00:00Z,26.1914,-97.0507,0.0,0.845990544,147.0615969,1.32,'11111222,11111222,11111222' 
TABS,ioos:station:wmo:42044:1,2013-12-01T15:30:00Z,26.1914,-97.0507,0.0,1.364001466,116.56541,1.96,'11111222,11111222,11111222' 
TABS,ioos:station:wmo:42044:1,2013-12-01T16:00:00Z,26.1914,-97.0507,0.0,1.324122351,152.0805093,1.73,'11111222,11111222,11111222' 
TABS,ioos:station:wmo:42044:1,2013-12-01T16:30:00Z,26.1914,-97.0507,0.0,1.993238571,156.6506979,2.41,'11111222,11111222,11111222' 
TABS,ioos:station:wmo:42044:1,2013-12-01T17:00:00Z,26.1914,-97.0507,0.0,1.781375873,159.6324375,2.27,'11111222,11111222,11111222' 
TABS,ioos:station:wmo:42044:1,2013-12-01T17:30:00Z,26.1914,-97.0507,0.0,2.014373352,161.4753588,2.7,'11111222,11111222,11111222' 
TABS,ioos:station:wmo:42044:1,2013-12-01T18:00:00Z,26.1914,-97.0507,0.0,1.522005256,155.9613324,1.94,'11111222,11111222,11111222' 
TABS,ioos:station:wmo:42044:1,2013-12-01T18:30:00Z,26.1914,-97.0507,0.0,1.49,180.0002105,1.96,'11111222,11111222,11111222' 
TABS,ioos:station:wmo:42044:1,2013-12-01T19:00:00Z,26.1914,-97.0507,0.0,2.390334705,150.9689557,3.13,'11111222,11111222,11111222' 
TABS,ioos:station:wmo:42044:1,2013-12-01T19:30:00Z,26.1914,-97.0507,0.0,2.605091169,149.3005597,3.25,'11111222,11111222,11111222' 
TABS,ioos:station:wmo:42044:1,2013-12-01T20:00:00Z,26.1914,-97.0507,0.0,2.349489306,140.0073904,2.9,'11111222,11111222,11111222' 
TABS,ioos:station:wmo:42044:1,2013-12-01T20:30:00Z,26.1914,-97.0507,0.0,1.978004044,126.986098,2.47,'11111222,11111222,11111222' 
TABS,ioos:station:wmo:42044:1,2013-12-01T21:00:00Z,26.1914,-97.0507,0.0,2.296519105,123.2752311,2.97,'11111222,11111222,11111222' 
TABS,ioos:station:wmo:42044:1,2013-12-01T21:30:00Z,26.1914,-97.0507,0.0,2.751381471,136.3256854,3.67,'11111222,11111222,11111222' 
TABS,ioos:station:wmo:42044:1,2013-12-01T22:00:00Z,26.1914,-97.0507,0.0,3.10716913,150.7128393,3.87,'11111222,11111222,11111222' 
TABS,ioos:station:wmo:42044:1,2013-12-01T22:30:00Z,26.1914,-97.0507,0.0,2.72484862,144.5603898,3.23,'11111222,11111222,11111222' 
TABS,ioos:station:wmo:42044:1,2013-12-01T23:00:00Z,26.1914,-97.0507,0.0,2.457722523,145.2756498,3.09,'11111222,11111222,11111222' 
TABS,ioos:station:wmo:42044:1,2013-12-01T23:30:00Z,26.1914,-97.0507,0.0,2.351042322,138.1036678,2.85,'11111222,11111222,11111222' 
TABS,ioos:station:wmo:42044:1,2013-12-02T00:00:00Z,26.1914,-97.0507,0.0,2.632185404,150.9033897,3.21,'11111222,11111222,11111222' 
TABS,ioos:station:wmo:42044:1,2013-12-02T00:30:00Z,26.1914,-97.0507,0.0,3.582094359,142.714525,4.48,'11111222,11111222,11111222' 
TABS,ioos:station:wmo:42044:1,2013-12-02T01:00:00Z,26.1914,-97.0507,0.0,3.010149498,152.4988232,3.7,'11111222,11111222,11111222' 
TABS,ioos:station:wmo:42044:1,2013-12-02T01:30:00Z,26.1914,-97.0507,0.0,2.433289954,159.5544501,3.11,'11111222,11111222,11111222' 
TABS,ioos:station:wmo:42044:1,2013-12-02T02:00:00Z,26.1914,-97.0507,0.0,2.530335946,169.756147,3.08,'11111222,11111222,11111222' 
TABS,ioos:station:wmo:42044:1,2013-12-02T02:30:00Z,26.1914,-97.0507,0.0,2.161874187,182.3861489,2.63,'11111222,11111222,11111222' 
TABS,ioos:station:wmo:42044:1,2013-12-02T03:00:00Z,26.1914,-97.0507,0.0,2.179380646,187.6469546,2.72,'11111222,11111222,11111222' 
TABS,ioos:station:wmo:42044:1,2013-12-02T03:30:00Z,26.1914,-97.0507,0.0,2.130375554,178.9243624,2.56,'11111222,11111222,11111222' 
TABS,ioos:station:wmo:42044:1,2013-12-02T04:00:00Z,26.1914,-97.0507,0.0,1.764086166,183.9006951,2.2,'11111222,11111222,11111222' 
TABS,ioos:station:wmo:42044:1,2013-12-02T04:30:00Z,26.1914,-97.0507,0.0,1.767766953,188.1302938,2.31,'11111222,11111222,11111222' 
TABS,ioos:station:wmo:42044:1,2013-12-02T05:00:00Z,26.1914,-97.0507,0.0,1.691892432,182.7104072,2.27,'11111222,11111222,11111222' 
TABS,ioos:station:wmo:42044:1,2013-12-02T05:30:00Z,26.1914,-97.0507,0.0,2.416712643,184.2716225,2.88,'11111222,11111222,11111222' 
TABS,ioos:station:wmo:42044:1,2013-12-02T06:00:00Z,26.1914,-97.0507,0.0,2.422065234,182.3664529,2.89,'11111222,11111222,11111222' 
TABS,ioos:station:wmo:42044:1,2013-12-02T06:30:00Z,26.1914,-97.0507,0.0,2.216528818,184.3989055,2.89,'11111222,11111222,11111222' 
TABS,ioos:station:wmo:42044:1,2013-12-02T07:00:00Z,26.1914,-97.0507,0.0,1.733493582,183.6383885,2.17,'11111222,11111222,11111222' 
TABS,ioos:station:wmo:42044:1,2013-12-02T07:30:00Z,26.1914,-97.0507,0.0,1.942498391,186.5032512,2.45,'11111222,11111222,11111222' 
TABS,ioos:station:wmo:42044:1,2013-12-02T08:00:00Z,26.1914,-97.0507,0.0,2.38729973,188.6733642,2.89,'11111222,11111222,11111222' 
TABS,ioos:station:wmo:42044:1,2013-12-02T08:30:00Z,26.1914,-97.0507,0.0,2.252487514,201.8960382,2.77,'11111222,11111222,11111222' 
TABS,ioos:station:wmo:42044:1,2013-12-02T09:00:00Z,26.1914,-97.0507,0.0,2.123134475,200.3982818,2.78,'11111222,11111222,11111222' 
TABS,ioos:station:wmo:42044:1,2013-12-02T09:30:00Z,26.1914,-97.0507,0.0,1.336001497,216.78425,1.85,'11111222,11111222,11111222' 
TABS,ioos:station:wmo:42044:1,2013-12-02T10:00:00Z,26.1914,-97.0507,0.0,2.480020161,216.6389923,3.26,'11111222,11111222,11111222' 
TABS,ioos:station:wmo:42044:1,2013-12-02T10:30:00Z,26.1914,-97.0507,0.0,3.630440745,192.0839166,4.33,'11111222,11111222,11111222' 
TABS,ioos:station:wmo:42044:1,2013-12-02T11:00:00Z,26.1914,-97.0507,0.0,2.629676786,206.1754392,3.92,'11111222,11111222,11111222' 
TABS,ioos:station:wmo:42044:1,2013-12-02T11:30:00Z,26.1914,-97.0507,0.0,2.104115016,217.469099,3.02,'11111222,11111222,11111222' 
TABS,ioos:station:wmo:42044:1,2013-12-02T12:00:00Z,26.1914,-97.0507,0.0,3.129504753,209.2681372,4.07,'11111222,11111222,11111222' 
TABS,ioos:station:wmo:42044:1,2013-12-02T12:30:00Z,26.1914,-97.0507,0.0,3.3186895,205.7158654,4.6,'11111222,11111222,11111222' 
TABS,ioos:station:wmo:42044:1,2013-12-02T13:00:00Z,26.1914,-97.0507,0.0,1.976866207,205.7874783,2.85,'11111222,11111222,11111222' 
TABS,ioos:station:wmo:42044:1,2013-12-02T13:30:00Z,26.1914,-97.0507,0.0,2.865414455,202.3585408,3.62,'11111222,11111222,11111222' 
TABS,ioos:station:wmo:42044:1,2013-12-02T14:00:00Z,26.1914,-97.0507,0.0,4.093079525,202.5554155,4.97,'11111222,11111222,11111222' 
TABS,ioos:station:wmo:42044:1,2013-12-02T14:30:00Z,26.1914,-97.0507,0.0,3.126179777,205.9914426,3.93,'11111222,11111222,11111222' 
TABS,ioos:station:wmo:42044:1,2013-12-02T15:00:00Z,26.1914,-97.0507,0.0,3.413927357,204.7635714,4.1,'11111222,11111222,11111222' 
TABS,ioos:station:wmo:42044:1,2013-12-02T15:30:00Z,26.1914,-97.0507,0.0,1.874086444,205.6080821,2.62,'11111222,11111222,11111222' 
TABS,ioos:station:wmo:42044:1,2013-12-02T16:00:00Z,26.1914,-97.0507,0.0,1.243905141,245.2892583,1.77,'11111222,11111222,11111222' 
TABS,ioos:station:wmo:42044:1,2013-12-02T16:30:00Z,26.1914,-97.0507,0.0,1.809530326,200.0373738,2.42,'11111222,11111222,11111222' 
TABS,ioos:station:wmo:42044:1,2013-12-02T17:00:00Z,26.1914,-97.0507,0.0,1.4724809,208.827984,2.26,'11111222,11111222,11111222' 
TABS,ioos:station:wmo:42044:1,2013-12-02T17:30:00Z,26.1914,-97.0507,0.0,2.158564338,189.3315992,2.61,'11111222,11111222,11111222' 
TABS,ioos:station:wmo:42044:1,2013-12-02T18:00:00Z,26.1914,-97.0507,0.0,3.332896638,173.2803463,4.38,'11111222,11111222,11111222' 
TABS,ioos:station:wmo:42044:1,2013-12-02T18:30:00Z,26.1914,-97.0507,0.0,4.05030863,142.4230813,5.1,'11111222,11111222,11111222' 
TABS,ioos:station:wmo:42044:1,2013-12-02T19:00:00Z,26.1914,-97.0507,0.0,6.180914172,173.404114,7.79,'11111222,11111222,11111222' 
TABS,ioos:station:wmo:42044:1,2013-12-02T19:30:00Z,26.1914,-97.0507,0.0,6.013318551,176.1861445,7.06,'11111222,11111222,11111222' 
TABS,ioos:station:wmo:42044:1,2013-12-02T20:00:00Z,26.1914,-97.0507,0.0,5.707933076,170.5214082,6.82,'11111222,11111222,11111222' 
TABS,ioos:station:wmo:42044:1,2013-12-02T20:30:00Z,26.1914,-97.0507,0.0,6.009301124,171.2903134,7.12,'11111222,11111222,11111222' 
TABS,ioos:station:wmo:42044:1,2013-12-02T21:00:00Z,26.1914,-97.0507,0.0,6.765811112,171.4150291,8.24,'11111222,11111222,11111222' 
TABS,ioos:station:wmo:42044:1,2013-12-02T21:30:00Z,26.1914,-97.0507,0.0,6.801470429,175.4464531,8.18,'11111222,11111222,11111222' 
TABS,ioos:station:wmo:42044:1,2013-12-02T22:00:00Z,26.1914,-97.0507,0.0,6.613992743,176.2725806,7.82,'11111222,11111222,11111222' 
TABS,ioos:station:wmo:42044:1,2013-12-02T22:30:00Z,26.1914,-97.0507,0.0,5.060355719,180.6795736,5.97,'11111222,11111222,11111222' 
TABS,ioos:station:wmo:42044:1,2013-12-02T23:00:00Z,26.1914,-97.0507,0.0,4.655684697,177.16854,5.58,'11111222,11111222,11111222' 
TABS,ioos:station:wmo:42044:1,2013-12-02T23:30:00Z,26.1914,-97.0507,0.0,4.742699653,181.9335066,5.78,'11111222,11111222,11111222' 
TABS,ioos:station:wmo:42044:1,2013-12-03T00:00:00Z,26.1914,-97.0507,0.0,3.820209418,179.400278,4.61,'11111222,11111222,11111222' 
TABS,ioos:station:wmo:42044:1,2013-12-03T00:30:00Z,26.1914,-97.0507,0.0,6.155038586,184.0062312,7.36,'11111222,11111222,11111222' 
TABS,ioos:station:wmo:42044:1,2013-12-03T01:00:00Z,26.1914,-97.0507,0.0,5.570385983,183.4995435,6.96,'11111222,11111222,11111222' 
TABS,ioos:station:wmo:42044:1,2013-12-03T01:30:00Z,26.1914,-97.0507,0.0,4.173068415,184.5357998,5.79,'11111222,11111222,11111222' 
TABS,ioos:station:wmo:42044:1,2013-12-03T02:00:00Z,26.1914,-97.0507,0.0,5.225332525,184.3904958,6.19,'11111222,11111222,11111222' 
TABS,ioos:station:wmo:42044:1,2013-12-03T02:30:00Z,26.1914,-97.0507,0.0,4.637865889,183.3376455,5.46,'11111222,11111222,11111222' 
TABS,ioos:station:wmo:42044:1,2013-12-03T03:00:00Z,26.1914,-97.0507,0.0,4.431568571,184.1410868,5.05,'11111222,11111222,11111222' 
TABS,ioos:station:wmo:42044:1,2013-12-03T03:30:00Z,26.1914,-97.0507,0.0,5.818539336,187.4061288,6.91,'11111222,11111222,11111222' 
TABS,ioos:station:wmo:42044:1,2013-12-03T04:00:00Z,26.1914,-97.0507,0.0,5.380631933,187.0459631,6.1,'11111222,11111222,11111222' 
TABS,ioos:station:wmo:42044:1,2013-12-03T04:30:00Z,26.1914,-97.0507,0.0,5.343294864,188.827877,6.03,'11111222,11111222,11111222' 
TABS,ioos:station:wmo:42044:1,2013-12-03T05:00:00Z,26.1914,-97.0507,0.0,4.882560804,193.3818049,5.71,'11111222,11111222,11111222' 
TABS,ioos:station:wmo:42044:1,2013-12-03T05:30:00Z,26.1914,-97.0507,0.0,5.254188805,187.4363024,6.29,'11111222,11111222,11111222' 
TABS,ioos:station:wmo:42044:1,2013-12-03T06:00:00Z,26.1914,-97.0507,0.0,5.519755429,188.4385687,6.65,'11111222,11111222,11111222' 
TABS,ioos:station:wmo:42044:1,2013-12-03T06:30:00Z,26.1914,-97.0507,0.0,6.366945893,192.3337745,7.61,'11111222,11111222,11111222' 
TABS,ioos:station:wmo:42044:1,2013-12-03T07:00:00Z,26.1914,-97.0507,0.0,6.670089954,190.8889564,7.79,'11111222,11111222,11111222' 
TABS,ioos:station:wmo:42044:1,2013-12-03T07:30:00Z,26.1914,-97.0507,0.0,6.276894136,192.4200807,7.59,'11111222,11111222,11111222' 
TABS,ioos:station:wmo:42044:1,2013-12-03T08:00:00Z,26.1914,-97.0507,0.0,4.40382788,195.6775003,5.88,'11111222,11111222,11111222' 
TABS,ioos:station:wmo:42044:1,2013-12-03T08:30:00Z,26.1914,-97.0507,0.0,2.636854186,192.9296512,3.32,'11111222,11111222,11111222' 
TABS,ioos:station:wmo:42044:1,2013-12-03T09:00:00Z,26.1914,-97.0507,0.0,5.118251655,188.652732,6.03,'11111222,11111222,11111222' 
TABS,ioos:station:wmo:42044:1,2013-12-03T09:30:00Z,26.1914,-97.0507,0.0,4.738143096,187.2751984,5.78,'11111222,11111222,11111222' 
TABS,ioos:station:wmo:42044:1,2013-12-03T10:00:00Z,26.1914,-97.0507,0.0,3.454185866,177.1792285,4.07,'11111222,11111222,11111222' 
TABS,ioos:station:wmo:42044:1,2013-12-03T10:30:00Z,26.1914,-97.0507,0.0,3.077287767,167.9965096,3.99,'11111222,11111222,11111222' 
TABS,ioos:station:wmo:42044:1,2013-12-03T11:00:00Z,26.1914,-97.0507,0.0,3.440959169,170.1272941,4.35,'11111222,11111222,11111222' 
TABS,ioos:station:wmo:42044:1,2013-12-03T11:30:00Z,26.1914,-97.0507,0.0,5.025733777,177.2630606,5.96,'11111222,11111222,11111222' 
TABS,ioos:station:wmo:42044:1,2013-12-03T12:00:00Z,26.1914,-97.0507,0.0,4.864699374,186.8476454,5.68,'11111222,11111222,11111222' 
TABS,ioos:station:wmo:42044:1,2013-12-03T12:30:00Z,26.1914,-97.0507,0.0,4.580010917,179.875111,5.48,'11111222,11111222,11111222' 
TABS,ioos:station:wmo:42044:1,2013-12-03T13:00:00Z,26.1914,-97.0507,0.0,3.66660606,183.4400721,4.8,'11111222,11111222,11111222' 
TABS,ioos:station:wmo:42044:1,2013-12-03T13:30:00Z,26.1914,-97.0507,0.0,4.623299687,190.2163571,5.69,'11111222,11111222,11111222' 
TABS,ioos:station:wmo:42044:1,2013-12-03T14:00:00Z,26.1914,-97.0507,0.0,3.614484749,186.672989,4.55,'11111222,11111222,11111222' 
TABS,ioos:station:wmo:42044:1,2013-12-03T14:30:00Z,26.1914,-97.0507,0.0,4.258321265,187.6926405,5.19,'11111222,11111222,11111222' 
TABS,ioos:station:wmo:42044:1,2013-12-03T15:00:00Z,26.1914,-97.0507,0.0,4.696221886,197.856392,5.78,'11111222,11111222,11111222' 
TABS,ioos:station:wmo:42044:1,2013-12-03T15:30:00Z,26.1914,-97.0507,0.0,3.70297178,190.5818212,4.56,'11111222,11111222,11111222' 
TABS,ioos:station:wmo:42044:1,2013-12-03T16:00:00Z,26.1914,-97.0507,0.0,3.269327148,190.9320463,3.77,'11111222,11111222,11111222' 
TABS,ioos:station:wmo:42044:1,2013-12-03T16:30:00Z,26.1914,-97.0507,0.0,3.649657518,189.4625105,4.36,'11111222,11111222,11111222' 
TABS,ioos:station:wmo:42044:1,2013-12-03T17:00:00Z,26.1914,-97.0507,0.0,4.305368741,193.2940402,5.1,'11111222,11111222,11111222' 
TABS,ioos:station:wmo:42044:1,2013-12-03T17:30:00Z,26.1914,-97.0507,0.0,3.900051282,179.7063892,4.5,'11111222,11111222,11111222' 
TABS,ioos:station:wmo:42044:1,2013-12-03T18:00:00Z,26.1914,-97.0507,0.0,3.602249297,167.0056241,4.19,'11111222,11111222,11111222' 
TABS,ioos:station:wmo:42044:1,2013-12-03T18:30:00Z,26.1914,-97.0507,0.0,4.631554815,178.5155585,5.69,'11111222,11111222,11111222' 
TABS,ioos:station:wmo:42044:1,2013-12-03T19:00:00Z,26.1914,-97.0507,0.0,4.9962586,177.1320852,5.82,'11111222,11111222,11111222' 
TABS,ioos:station:wmo:42044:1,2013-12-03T19:30:00Z,26.1914,-97.0507,0.0,5.464430437,177.6928429,6.43,'11111222,11111222,11111222' 
TABS,ioos:station:wmo:42044:1,2013-12-03T20:00:00Z,26.1914,-97.0507,0.0,5.267988231,176.8445199,6.36,'11111222,11111222,11111222' 
TABS,ioos:station:wmo:42044:1,2013-12-03T20:30:00Z,26.1914,-97.0507,0.0,5.286898902,177.0728693,6.25,'11111222,11111222,11111222' 
TABS,ioos:station:wmo:42044:1,2013-12-03T21:00:00Z,26.1914,-97.0507,0.0,5.552918152,178.1426244,6.55,'11111222,11111222,11111222' 
TABS,ioos:station:wmo:42044:1,2013-12-03T21:30:00Z,26.1914,-97.0507,0.0,5.604721224,177.6483183,6.68,'11111222,11111222,11111222' 
TABS,ioos:station:wmo:42044:1,2013-12-03T22:00:00Z,26.1914,-97.0507,0.0,4.81682468,172.0047027,5.78,'11111222,11111222,11111222' 
TABS,ioos:station:wmo:42044:1,2013-12-03T22:30:00Z,26.1914,-97.0507,0.0,5.141458937,164.3150761,6.15,'11111222,11111222,11111222' 
TABS,ioos:station:wmo:42044:1,2013-12-03T23:00:00Z,26.1914,-97.0507,0.0,5.428996224,164.837689,6.64,'11111222,11111222,11111222' 
TABS,ioos:station:wmo:42044:1,2013-12-03T23:30:00Z,26.1914,-97.0507,0.0,5.487667993,170.3490998,6.96,'11111222,11111222,11111222' 
TABS,ioos:station:wmo:42044:1,2013-12-04T00:00:00Z,26.1914,-97.0507,0.0,4.887882977,171.1738601,6.0,'11111222,11111222,11111222' 
TABS,ioos:station:wmo:42044:1,2013-12-04T00:30:00Z,26.1914,-97.0507,0.0,4.937944917,183.250832,5.93,'11111222,11111222,11111222' 
TABS,ioos:station:wmo:42044:1,2013-12-04T01:00:00Z,26.1914,-97.0507,0.0,4.415529413,184.8069447,5.38,'11111222,11111222,11111222' 
TABS,ioos:station:wmo:42044:1,2013-12-04T01:30:00Z,26.1914,-97.0507,0.0,3.20224921,177.8526301,4.05,'11111222,11111222,11111222' 
TABS,ioos:station:wmo:42044:1,2013-12-04T02:00:00Z,26.1914,-97.0507,0.0,3.428541964,164.2614458,4.12,'11111222,11111222,11111222' 
TABS,ioos:station:wmo:42044:1,2013-12-04T02:30:00Z,26.1914,-97.0507,0.0,2.927200027,163.7322144,3.46,'11111222,11111222,11111222' 
TABS,ioos:station:wmo:42044:1,2013-12-04T03:00:00Z,26.1914,-97.0507,0.0,3.343067454,162.5951061,3.93,'11111222,11111222,11111222' 
TABS,ioos:station:wmo:42044:1,2013-12-04T03:30:00Z,26.1914,-97.0507,0.0,2.798731856,171.7832717,3.48,'11111222,11111222,11111222' 
TABS,ioos:station:wmo:42044:1,2013-12-04T04:00:00Z,26.1914,-97.0507,0.0,3.738796598,167.4880539,4.61,'11111222,11111222,11111222' 
TABS,ioos:station:wmo:42044:1,2013-12-04T04:30:00Z,26.1914,-97.0507,0.0,3.292567387,164.3177837,3.94,'11111222,11111222,11111222' 
TABS,ioos:station:wmo:42044:1,2013-12-04T05:00:00Z,26.1914,-97.0507,0.0,2.574024087,147.0510724,3.57,'11111222,11111222,11111222' 
TABS,ioos:station:wmo:42044:1,2013-12-04T05:30:00Z,26.1914,-97.0507,0.0,3.358586012,153.2826368,4.04,'11111222,11111222,11111222' 
TABS,ioos:station:wmo:42044:1,2013-12-04T06:00:00Z,26.1914,-97.0507,0.0,3.354906854,167.0824278,4.02,'11111222,11111222,11111222' 
TABS,ioos:station:wmo:42044:1,2013-12-04T06:30:00Z,26.1914,-97.0507,0.0,4.161562207,175.7282287,4.95,'11111222,11111222,11111222' 
TABS,ioos:station:wmo:42044:1,2013-12-04T07:00:00Z,26.1914,-97.0507,0.0,3.502027984,184.7502542,4.24,'11111222,11111222,11111222' 
TABS,ioos:station:wmo:42044:1,2013-12-04T07:30:00Z,26.1914,-97.0507,0.0,4.510099777,180.3813289,5.63,'11111222,11111222,11111222' 
TABS,ioos:station:wmo:42044:1,2013-12-04T08:00:00Z,26.1914,-97.0507,0.0,3.953795645,184.7879098,4.91,'11111222,11111222,11111222' 
TABS,ioos:station:wmo:42044:1,2013-12-04T08:30:00Z,26.1914,-97.0507,0.0,3.83377099,182.5416911,4.84,'11111222,11111222,11111222' 
TABS,ioos:station:wmo:42044:1,2013-12-04T09:00:00Z,26.1914,-97.0507,0.0,5.639663111,176.6456893,7.02,'11111222,11111222,11111222' 
TABS,ioos:station:wmo:42044:1,2013-12-04T09:30:00Z,26.1914,-97.0507,0.0,5.49003643,179.7914841,6.85,'11111222,11111222,11111222' 
TABS,ioos:station:wmo:42044:1,2013-12-04T10:00:00Z,26.1914,-97.0507,0.0,6.300642824,180.818664,8.03,'11111222,11111222,11111222' 
TABS,ioos:station:wmo:42044:1,2013-12-04T10:30:00Z,26.1914,-97.0507,0.0,4.99660885,188.6330165,6.34,'11111222,11111222,11111222' 
TABS,ioos:station:wmo:42044:1,2013-12-04T11:00:00Z,26.1914,-97.0507,0.0,5.196999134,184.635663,6.5,'11111222,11111222,11111222' 
TABS,ioos:station:wmo:42044:1,2013-12-04T11:30:00Z,26.1914,-97.0507,0.0,4.50058885,185.4827743,5.71,'11111222,11111222,11111222' 
TABS,ioos:station:wmo:42044:1,2013-12-04T12:00:00Z,26.1914,-97.0507,0.0,3.487592293,176.2189286,4.43,'11111222,11111222,11111222' 
TABS,ioos:station:wmo:42044:1,2013-12-04T12:30:00Z,26.1914,-97.0507,0.0,3.586753407,176.4836712,4.42,'11111222,11111222,11111222' 
TABS,ioos:station:wmo:42044:1,2013-12-04T13:00:00Z,26.1914,-97.0507,0.0,2.603536057,152.0572414,3.65,'11111222,11111222,11111222' 
TABS,ioos:station:wmo:42044:1,2013-12-04T13:30:00Z,26.1914,-97.0507,0.0,2.547194535,141.3756218,3.19,'11111222,11111222,11111222' 
TABS,ioos:station:wmo:42044:1,2013-12-04T14:00:00Z,26.1914,-97.0507,0.0,2.319353358,135.3496751,2.89,'11111222,11111222,11111222' 
TABS,ioos:station:wmo:42044:1,2013-12-04T14:30:00Z,26.1914,-97.0507,0.0,2.188332699,149.2161359,2.63,'11111222,11111222,11111222' 
TABS,ioos:station:wmo:42044:1,2013-12-04T15:00:00Z,26.1914,-97.0507,0.0,2.83867927,137.7130431,3.4,'11111222,11111222,11111222' 
TABS,ioos:station:wmo:42044:1,2013-12-04T15:30:00Z,26.1914,-97.0507,0.0,2.641098256,149.259755,3.13,'11111222,11111222,11111222' 
TABS,ioos:station:wmo:42044:1,2013-12-04T16:00:00Z,26.1914,-97.0507,0.0,2.110213259,127.6848075,2.7,'11111222,11111222,11111222' 
TABS,ioos:station:wmo:42044:1,2013-12-04T16:30:00Z,26.1914,-97.0507,0.0,2.779154548,135.7292286,3.33,'11111222,11111222,11111222' 
TABS,ioos:station:wmo:42044:1,2013-12-04T17:00:00Z,26.1914,-97.0507,0.0,2.972137278,151.0205705,3.58,'11111222,11111222,11111222' 
TABS,ioos:station:wmo:42044:1,2013-12-04T17:30:00Z,26.1914,-97.0507,0.0,2.355440511,150.4967692,2.83,'11111222,11111222,11111222' 
TABS,ioos:station:wmo:42044:1,2013-12-04T18:00:00Z,26.1914,-97.0507,0.0,2.318124242,171.0661531,3.29,'11111222,11111222,11111222' 
TABS,ioos:station:wmo:42044:1,2013-12-04T18:30:00Z,26.1914,-97.0507,0.0,2.792167617,182.2580092,3.63,'11111222,11111222,11111222' 